KINEIS-3C (61220 NORAD) Tracking and Keplerian Element Data

This shows tracking and keplerian element data for the satellite.

Feedback or suggestion? Click here.




ElementValue
Catalog61220
NameKINEIS-3C
Epoch Orbit323
Epoch Day286.8694083
Epoch Year2024
RAAN13.2068
Inclination98.0171
Eccentricity4.09E-05
Argument of Perigee329.2536
Mean Anonmoly30.865
Mean Motion14.77329373
Decay Rate0.00010994
L11 61220U 24172A 24286.86940830 .00010994 00000+0 15531-2 0 9996
L22 61220 98.0171 13.2068 0000409 329.2536 30.8650 14.77329373 3238



Live tracking and technical data element details for KINEIS-3C (NORAD 61220). KINEIS-3C can be tracked NOW for your location showing map with azimuth and elevation plus other details from your city location.







IsCatalogInMostPopularTable: catalog: 61220, numindb: 23
Update: records affected: 1



GetName: 61220 KINEIS-3C

Hit Count: updated at: Fri, 06 Dec 2024 10:16:14 GMT